PBO Station Position Time Series. Reference Frame : NAM14
Format Version,1.1.1
4-character ID,P449
Station name,Olsen_BrosWA2006
Begin Date, 2006-02-25
End Date, 2023-06-26
Release Date, 2023-06-27
Reference position, 46.2597921471 North Latitude, -119.6309971421 East Longitude, 208.44413 meters elevation,
Date, North (mm), East (mm), Vertical (mm), North Std. Deviation (mm), East Std. Deviation (mm),              Vertical Std. Deviation (mm), Quality,
2006-02-25,0.00, 0.00, 0.00, 2.21, 1.54, 6.97, repro,
2006-02-26,-0.57, 0.40, 8.67, 2.24, 1.55, 7.03, repro,
2006-02-27,-0.93, 0.74, 16.74, 2.25, 1.54, 7.05, repro,
2006-02-28,-2.03, 0.34, 13.77, 2.26, 1.56, 7.11, repro,
2006-03-01,-1.79, 0.53, 12.88, 2.31, 1.59, 7.21, repro,
2006-03-02,-1.77, 1.44, 5.81, 2.20, 1.53, 6.89, repro,
2006-03-03,-0.38, 0.37, 8.75, 2.30, 1.56, 7.22, repro,
2006-03-04,0.44, 0.49, 6.18, 2.24, 1.54, 7.03, repro,
2006-03-05,-1.86, 0.72, 8.97, 2.21, 1.54, 7.00, repro,
2006-03-06,-0.88, 0.37, 13.88, 2.20, 1.54, 6.97, repro,
2006-03-07,-0.21, 0.54, 8.17, 2.19, 1.53, 6.91, repro,
2006-03-08,-0.11, 0.02, 9.97, 2.21, 1.53, 6.93, repro,
2006-03-09,-2.07, -0.40, 18.16, 2.27, 1.59, 7.16, repro,
2006-03-10,-0.44, -0.63, 18.59, 2.22, 1.54, 7.00, repro,
2006-03-11,0.29, -0.23, 9.06, 2.25, 1.56, 7.14, repro,
2006-03-12,-0.25, 0.00, 9.27, 2.23, 1.56, 7.05, repro,
2006-03-13,0.99, -0.40, 5.27, 2.25, 1.56, 7.10, repro,
2006-03-14,-0.51, 0.04, 11.46, 2.26, 1.57, 7.14, repro,
2006-03-15,-1.51, 0.12, 9.88, 2.26, 1.57, 7.16, repro,
2006-03-16,-0.13, 0.28, 1.88, 2.32, 1.60, 7.36, repro,
2006-03-17,-0.94, 0.21, 2.38, 2.31, 1.60, 7.34, repro,
2006-03-18,1.04, -0.19, 2.33, 2.27, 1.58, 7.24, repro,
2006-03-19,-0.23, -0.02, 4.15, 2.27, 1.58, 7.21, repro,
2006-03-20,-1.07, -0.33, 7.93, 2.26, 1.57, 7.18, repro,
2006-03-21,0.05, 0.27, 8.14, 2.25, 1.57, 7.14, repro,
2006-03-22,-0.18, -0.29, 5.05, 2.25, 1.59, 7.16, repro,
2006-03-23,-0.03, 0.39, -0.24, 2.30, 1.59, 7.17, repro,
2006-03-24,-1.63, 0.16, 9.07, 2.32, 1.61, 7.26, repro,
2006-03-25,-1.47, 0.32, 10.63, 2.32, 1.62, 7.33, repro,
2006-03-26,-1.25, -1.44, 8.00, 2.34, 1.61, 7.32, repro,
2006-03-27,-0.01, -0.00, 8.16, 2.30, 1.61, 7.22, repro,
2006-03-28,-1.88, 1.40, 13.54, 2.21, 1.57, 7.01, repro,
2006-03-29,-1.12, -0.24, 14.65, 2.18, 1.55, 6.96, repro,
2006-03-30,-1.53, 0.04, 12.60, 2.17, 1.55, 6.93, repro,
2006-03-31,-1.16, -0.42, 9.90, 2.19, 1.56, 7.05, repro,
2006-04-01,-1.69, -0.09, 8.91, 2.20, 1.56, 7.05, repro,
2006-04-02,-0.75, 0.59, 4.24, 2.17, 1.55, 6.95, repro,
2006-04-03,-1.38, 0.42, 6.18, 2.17, 1.55, 6.91, repro,
2006-04-04,-1.74, -0.24, 5.67, 2.16, 1.55, 6.91, repro,
2006-04-05,-1.89, 0.41, 13.98, 2.19, 1.56, 7.03, repro,
2006-04-06,-2.45, -1.05, 8.37, 2.26, 1.60, 7.26, repro,
2006-04-07,-0.44, 0.07, 4.42, 2.28, 1.60, 7.31, repro,
2006-04-08,-2.38, -0.09, 10.68, 2.22, 1.55, 7.02, repro,
2006-04-09,-1.17, -0.39, 9.11, 2.15, 1.54, 6.89, repro,
2006-04-10,-1.88, 0.05, 11.86, 2.19, 1.56, 7.02, repro,
2006-04-11,-2.19, 0.13, 9.84, 2.27, 1.59, 7.33, repro,
2006-04-12,-0.54, 1.09, 10.89, 2.25, 1.59, 7.25, repro,
2006-04-13,-1.47, -1.15, 7.66, 2.16, 1.55, 6.94, repro,
2006-04-14,-0.93, 0.09, 12.10, 2.17, 1.54, 6.98, repro,
2006-04-15,-0.83, 0.36, 21.26, 2.23, 1.58, 7.17, repro,
2006-04-16,-0.48, -0.33, 13.01, 2.18, 1.57, 7.09, repro,
2006-04-17,-0.85, 0.35, 9.62, 2.20, 1.56, 7.06, repro,
2006-04-18,-0.17, -0.45, 2.72, 2.18, 1.55, 7.00, repro,
2006-04-19,-0.37, 0.10, 5.32, 2.16, 1.54, 6.93, repro,
2006-04-20,-0.47, 0.20, 10.90, 2.46, 1.76, 7.85, repro,
2006-04-21,-1.71, 0.15, 12.82, 2.21, 1.59, 7.14, repro,
2006-04-22,0.26, 0.35, 5.47, 2.23, 1.62, 7.26, repro,
2006-04-23,0.91, 0.12, 3.39, 2.22, 1.60, 7.19, repro,
2006-04-24,-0.67, 0.18, 5.83, 2.20, 1.58, 7.08, repro,
2006-04-25,-0.94, 0.80, 9.84, 2.21, 1.59, 7.13, repro,
2006-04-26,-0.80, 0.79, 9.03, 2.23, 1.59, 7.17, repro,
2006-04-27,-1.40, 0.46, 6.59, 2.27, 1.61, 7.29, repro,
2006-04-28,-0.32, 0.67, 3.11, 2.26, 1.57, 7.16, repro,
2006-04-29,-0.03, 0.43, 4.15, 2.19, 1.55, 7.02, repro,
2006-04-30,-0.55, -0.84, 8.23, 2.19, 1.55, 7.01, repro,
2006-05-01,-0.61, -0.69, 6.69, 2.18, 1.55, 7.01, repro,
2006-05-02,-1.46, -0.02, 2.28, 2.18, 1.55, 7.04, repro,
2006-05-03,-0.52, -0.29, 6.40, 2.19, 1.56, 7.09, repro,
2006-05-04,-1.25, -0.29, 6.59, 2.18, 1.54, 6.99, repro,
2006-05-05,-1.82, 0.70, 9.26, 2.17, 1.54, 6.96, repro,
2006-05-06,-1.51, -0.23, 13.60, 2.19, 1.55, 7.03, repro,
2006-05-07,-2.29, 0.05, 15.33, 2.18, 1.55, 7.02, repro,
2006-05-08,-1.31, 0.22, 11.30, 2.18, 1.55, 7.03, repro,
2006-05-09,-0.41, 0.17, 10.72, 2.26, 1.58, 7.13, repro,
2006-05-10,-1.11, 0.47, 4.34, 2.17, 1.54, 6.97, repro,
2006-05-11,-2.61, 0.64, 6.26, 2.19, 1.54, 7.03, repro,
2006-05-12,-1.67, -1.60, 8.66, 2.19, 1.55, 7.08, repro,
2006-05-13,0.09, -0.11, 5.35, 2.19, 1.55, 7.08, repro,
2006-05-14,-1.26, 0.52, 4.05, 2.17, 1.54, 7.02, repro,
2006-05-15,-0.20, 0.29, 4.25, 2.17, 1.53, 6.96, repro,
2006-05-16,-0.89, 0.46, 4.91, 2.23, 1.58, 7.26, repro,
2006-05-17,-1.44, 0.30, 5.80, 2.24, 1.63, 7.47, repro,
2006-05-18,-1.85, -0.09, 16.22, 2.22, 1.56, 7.10, repro,
2006-05-19,-1.41, -0.89, 13.93, 2.29, 1.60, 7.38, repro,
2006-05-20,-2.44, 1.42, 15.04, 2.33, 1.61, 7.37, repro,
2006-05-21,-1.37, 0.07, 16.80, 2.26, 1.56, 7.09, repro,
2006-05-22,-1.60, -1.32, 17.70, 2.28, 1.61, 7.32, repro,
2006-05-23,-0.63, -0.27, 8.72, 2.26, 1.58, 7.18, repro,
2006-05-24,-1.29, 0.27, 10.52, 2.27, 1.58, 7.23, repro,
2006-05-25,-0.92, -0.01, 7.46, 2.34, 1.61, 7.42, repro,
2006-05-26,-0.57, -0.68, 15.04, 2.33, 1.61, 7.35, repro,
2006-05-27,-1.45, -0.39, 16.58, 2.25, 1.57, 7.18, repro,
2006-05-28,-1.52, -0.96, 12.41, 2.31, 1.63, 7.37, repro,
2006-05-29,-0.45, 0.11, 10.06, 2.27, 1.59, 7.28, repro,
2006-05-30,-0.60, 0.81, 5.90, 2.33, 1.63, 7.46, repro,
2006-05-31,-0.24, 0.19, 12.54, 2.27, 1.57, 7.17, repro,
2006-06-01,-1.00, 0.06, 7.22, 2.31, 1.60, 7.29, repro,
2006-06-02,-2.31, -1.06, 3.62, 2.43, 1.67, 7.69, repro,
2006-06-03,-0.97, 0.82, 7.40, 2.32, 1.62, 7.40, repro,
2006-06-04,-0.35, 0.78, 10.37, 2.35, 1.62, 7.44, repro,
2006-06-05,-2.33, 0.30, 10.99, 2.31, 1.60, 7.33, repro,
2006-06-06,-2.08, 1.89, 9.72, 2.30, 1.59, 7.22, repro,
2006-06-07,-1.14, 0.02, 9.97, 2.30, 1.61, 7.31, repro,
2006-06-08,-0.93, -0.36, 9.74, 2.26, 1.58, 7.19, repro,
2006-06-09,-0.64, 0.50, 9.41, 2.27, 1.59, 7.21, repro,
2006-06-10,0.24, -0.42, 11.07, 2.28, 1.58, 7.20, repro,
2006-06-11,-0.61, 0.03, 11.39, 2.28, 1.58, 7.21, repro,
2006-06-12,-1.74, -0.21, 10.74, 2.27, 1.58, 7.16, repro,
2006-06-13,0.13, -0.66, 8.14, 2.33, 1.61, 7.38, repro,
2006-06-14,-1.22, -0.14, 14.37, 2.24, 1.58, 7.14, repro,
2006-06-15,-1.29, 0.64, 12.22, 2.24, 1.57, 7.13, repro,
2006-06-16,-1.21, -0.37, 9.50, 2.34, 1.63, 7.48, repro,
2006-06-17,-2.00, -0.26, 13.50, 2.26, 1.57, 7.15, repro,
2006-06-18,-1.69, -0.19, 17.40, 2.29, 1.66, 7.53, repro,
2006-06-19,-3.11, 0.68, 8.89, 2.36, 1.66, 7.56, repro,
2006-06-20,-0.44, -0.40, 9.24, 2.29, 1.63, 7.42, repro,
2006-06-21,-0.98, 0.33, 12.42, 2.29, 1.63, 7.39, repro,
2006-06-22,-1.28, 1.60, 7.92, 2.29, 1.62, 7.35, repro,
2006-06-23,-0.68, 0.93, 6.13, 2.29, 1.62, 7.36, repro,
2006-06-24,-0.67, 0.56, 6.15, 2.28, 1.63, 7.35, repro,
2006-06-25,0.23, -0.30, 3.21, 2.29, 1.63, 7.38, repro,
2006-06-26,-0.73, 0.92, 9.00, 2.28, 1.63, 7.38, repro,
2006-06-27,-1.26, 0.25, 14.42, 2.34, 1.69, 7.50, repro,
2006-06-28,-1.35, 0.07, 10.53, 2.36, 1.69, 7.55, repro,
2006-06-29,-2.57, 0.48, 17.71, 2.21, 1.59, 7.22, repro,
2006-06-30,0.28, 0.21, 7.33, 2.25, 1.58, 7.24, repro,
2006-07-01,-0.01, -1.14, 20.19, 2.25, 1.59, 7.32, repro,
2006-07-02,-1.25, 0.25, 15.26, 2.28, 1.62, 7.42, repro,
2006-07-03,-0.34, 1.61, 5.66, 2.26, 1.58, 7.29, repro,
2006-07-04,-2.33, 0.19, 18.17, 2.28, 1.58, 7.31, repro,
2006-07-05,-3.09, 0.83, 3.75, 2.32, 1.65, 7.46, repro,
2006-07-06,-0.61, 0.81, 8.10, 2.29, 1.64, 7.49, repro,
2006-07-07,0.47, 1.04, 3.99, 2.24, 1.58, 7.25, repro,
2006-07-08,-0.06, 0.99, 7.99, 2.26, 1.58, 7.30, repro,
2006-07-09,-1.30, 1.02, 15.22, 2.26, 1.58, 7.32, repro,
2006-07-10,-0.99, 0.49, 9.84, 2.24, 1.59, 7.30, repro,
2006-07-11,-0.85, -0.46, 19.17, 2.24, 1.59, 7.32, repro,
2006-07-12,-0.18, -1.84, 15.53, 2.24, 1.59, 7.34, repro,
2006-07-13,-2.24, 1.85, 14.03, 2.35, 1.62, 7.50, repro,
2006-07-14,-0.91, -0.85, 10.77, 2.25, 1.57, 7.27, repro,
2006-07-15,0.59, -0.38, 12.51, 2.25, 1.58, 7.29, repro,
2006-07-16,-2.49, 1.04, 11.85, 2.24, 1.58, 7.28, repro,
2006-07-17,-0.92, 0.85, 20.52, 2.28, 1.65, 7.57, repro,
2006-07-18,-1.35, -0.22, 13.96, 2.19, 1.57, 7.14, repro,
2006-07-19,0.80, 0.58, 13.73, 2.22, 1.59, 7.23, repro,
2006-07-20,-1.37, 0.94, 9.26, 2.20, 1.54, 7.04, repro,
2006-07-21,-0.24, 1.42, 5.22, 2.19, 1.55, 7.03, repro,
2006-07-22,0.12, 1.46, 6.27, 2.19, 1.55, 7.05, repro,
2006-07-23,-0.32, 0.93, 22.41, 2.19, 1.57, 7.12, repro,
2006-07-24,-1.87, 0.85, 20.03, 2.21, 1.56, 7.15, repro,
2006-07-25,0.94, 0.95, 7.51, 2.19, 1.55, 7.04, repro,
2006-07-26,-1.06, 0.36, 18.76, 2.19, 1.56, 7.03, repro,
2006-07-27,-1.87, 0.23, 15.46, 2.16, 1.55, 7.02, repro,
2006-07-28,-0.07, -0.35, 17.61, 2.18, 1.57, 7.11, repro,
2006-07-29,0.31, -0.72, 15.41, 2.18, 1.57, 7.12, repro,
2006-07-30,0.27, -0.34, 10.80, 2.22, 1.60, 7.17, repro,
2006-07-31,-1.35, 0.49, 16.78, 2.17, 1.55, 6.98, repro,
2006-08-01,-0.38, 1.29, 14.67, 2.17, 1.54, 7.00, repro,
2006-08-02,-1.02, 0.70, 12.01, 2.22, 1.60, 7.31, repro,
2006-08-03,0.29, 0.31, 15.71, 2.23, 1.61, 7.36, repro,
2006-08-04,-0.58, -1.03, 14.59, 2.28, 1.63, 7.41, repro,
2006-08-05,-0.99, -1.08, 13.36, 2.26, 1.65, 7.40, repro,
2006-08-06,0.05, 1.39, 17.10, 2.22, 1.59, 7.25, repro,
2006-08-07,0.76, 0.09, 21.07, 2.23, 1.61, 7.31, repro,
2006-08-08,0.70, -1.31, 25.83, 2.38, 1.69, 7.75, repro,
2006-08-09,-0.65, -0.55, 22.13, 2.18, 1.56, 7.08, repro,
2006-08-10,-1.05, 1.24, 22.80, 2.18, 1.56, 7.13, repro,
2006-08-11,-0.06, -0.50, 15.65, 2.27, 1.60, 7.38, repro,
2006-08-12,-1.28, 0.79, 17.36, 2.25, 1.62, 7.26, repro,
2006-08-13,-1.50, 0.38, 22.95, 2.19, 1.56, 7.08, repro,
2006-08-14,-1.61, 0.60, 21.03, 2.23, 1.62, 7.25, repro,
2006-08-15,-0.38, 0.17, 25.06, 2.26, 1.57, 7.15, repro,
2006-08-16,0.92, -0.82, 18.79, 2.21, 1.59, 7.18, repro,
2006-08-17,0.40, 0.49, 19.70, 2.19, 1.55, 7.06, repro,
2006-08-18,-1.79, 1.44, 13.92, 2.23, 1.61, 7.21, repro,
2006-08-19,-0.58, 0.49, 15.27, 2.19, 1.57, 7.10, repro,
2006-08-20,-1.91, 1.53, 23.77, 2.18, 1.56, 7.05, repro,
2006-08-21,-1.67, 0.71, 22.94, 2.19, 1.56, 7.10, repro,
2006-08-22,-2.47, 0.35, 20.28, 2.19, 1.57, 7.08, repro,
2006-08-23,-1.19, 0.14, 24.37, 2.21, 1.58, 7.12, repro,
2006-08-24,-1.61, 0.21, 22.97, 2.20, 1.58, 7.15, repro,
2006-08-25,-2.15, -0.06, 17.04, 2.24, 1.63, 7.36, repro,
2006-08-26,-1.00, 0.81, 19.16, 2.28, 1.65, 7.50, repro,
2006-08-27,-0.34, 0.83, 17.84, 2.28, 1.66, 7.53, repro,
2006-08-28,-1.87, 0.46, 15.72, 2.30, 1.67, 7.54, repro,
2006-08-29,0.32, 0.24, 17.73, 2.28, 1.68, 7.52, repro,
2006-08-30,-0.35, 0.43, 21.86, 2.25, 1.67, 7.47, repro,
2006-08-31,-0.65, 1.09, 12.99, 2.29, 1.67, 7.59, repro,
2006-09-01,-0.77, 0.70, 15.06, 2.28, 1.66, 7.53, repro,
2006-09-02,-0.87, 1.35, 19.10, 2.28, 1.66, 7.52, repro,
2006-09-03,-0.81, 0.50, 18.89, 2.28, 1.66, 7.50, repro,
2006-09-04,0.27, 0.05, 18.17, 2.34, 1.70, 7.69, repro,
2006-09-05,-0.97, 0.87, 12.51, 2.36, 1.71, 7.74, repro,
2006-09-06,-0.25, 0.86, 12.03, 2.28, 1.66, 7.53, repro,
2006-09-07,-0.87, 0.49, 20.07, 2.32, 1.71, 7.77, repro,
2006-09-08,-2.05, 0.25, 18.90, 2.32, 1.71, 7.75, repro,
2006-09-09,-2.55, -0.78, 23.07, 2.23, 1.63, 7.30, repro,
2006-09-10,-0.65, 0.41, 22.94, 2.24, 1.63, 7.36, repro,
2006-09-11,-0.63, 0.73, 17.87, 2.25, 1.62, 7.35, repro,
2006-09-12,-1.06, -0.06, 16.53, 2.24, 1.62, 7.30, repro,
2006-09-13,-0.01, -0.55, 23.33, 2.25, 1.63, 7.33, repro,
2006-09-14,0.29, -0.09, 26.23, 2.34, 1.72, 7.59, repro,
2006-09-15,-1.35, -1.27, 21.78, 2.27, 1.62, 7.25, repro,
2006-09-16,-0.40, 0.95, 18.47, 2.19, 1.58, 7.12, repro,
2006-09-17,-0.61, 0.05, 23.33, 2.21, 1.57, 7.13, repro,
2006-09-18,-0.24, 0.64, 23.63, 2.20, 1.56, 7.10, repro,
2006-09-19,-1.65, -0.18, 27.10, 2.21, 1.58, 7.19, repro,
2006-09-20,-1.40, -0.78, 16.81, 2.19, 1.57, 7.10, repro,
2006-09-21,-1.21, 0.52, 26.07, 2.25, 1.64, 7.33, repro,
2006-09-22,-0.95, 0.07, 19.92, 2.30, 1.66, 7.41, repro,
2006-09-23,-1.41, 0.43, 14.76, 2.25, 1.61, 7.23, repro,
2006-09-24,0.04, -0.17, 17.47, 2.26, 1.61, 7.28, repro,
2006-09-25,-1.02, 0.08, 20.01, 2.21, 1.58, 7.13, repro,
2006-09-26,-1.64, -0.03, 20.61, 2.23, 1.60, 7.24, repro,
2006-09-27,-0.62, 0.92, 15.88, 2.26, 1.67, 7.33, repro,
2006-09-28,-2.25, 0.81, 19.98, 2.22, 1.59, 7.18, repro,
2006-09-29,-1.14, 0.28, 24.04, 2.22, 1.60, 7.21, repro,
2006-09-30,-2.21, -0.12, 28.09, 2.25, 1.63, 7.36, repro,
2006-10-01,-2.73, 0.07, 25.10, 2.25, 1.61, 7.27, repro,
2006-10-02,-1.80, 0.48, 15.36, 2.29, 1.67, 7.38, repro,
2006-10-03,-0.51, 0.18, 16.06, 2.31, 1.69, 7.51, repro,
2006-10-04,-0.41, 0.63, 19.14, 2.24, 1.59, 7.20, repro,
2006-10-05,-1.56, 1.23, 23.83, 2.22, 1.59, 7.15, repro,
2006-10-06,-1.68, 0.15, 13.75, 2.23, 1.58, 7.17, repro,
2006-10-07,-2.57, -0.13, 18.87, 2.29, 1.65, 7.42, repro,
2006-10-08,-0.53, 1.27, 15.53, 2.28, 1.65, 7.36, repro,
2006-10-09,-1.19, 1.35, 8.75, 2.28, 1.65, 7.36, repro,
2006-10-10,0.08, 0.21, 13.04, 2.26, 1.63, 7.40, repro,
2006-10-11,-1.81, 0.30, 20.52, 2.25, 1.62, 7.35, repro,
2006-10-12,-1.33, 0.86, 21.79, 2.23, 1.59, 7.19, repro,
2006-10-13,-1.34, 1.24, 21.47, 2.19, 1.59, 7.12, repro,
2006-10-14,-0.19, 0.35, 18.69, 2.24, 1.66, 7.47, repro,
2006-10-15,-1.15, 0.17, 27.14, 2.27, 1.70, 7.47, repro,
2006-10-16,-1.66, -0.48, 29.54, 2.19, 1.58, 7.11, repro,
2006-10-17,-0.44, 0.85, 27.32, 2.25, 1.65, 7.54, repro,
2006-10-18,-1.58, 1.08, 18.76, 2.19, 1.58, 7.12, repro,
2006-10-19,-0.34, 0.39, 20.64, 2.20, 1.63, 7.35, repro,
2006-10-20,-0.93, 0.64, 14.17, 2.55, 1.87, 8.53, repro,
2006-10-21,-1.97, 1.13, 14.18, 2.34, 1.68, 7.63, repro,
2006-10-22,-2.91, 1.29, 14.90, 2.26, 1.66, 7.50, repro,
2006-10-23,-2.45, 0.98, 15.21, 2.33, 1.69, 7.69, repro,
2006-10-24,-1.41, 1.95, 16.18, 2.40, 1.70, 7.83, repro,
2006-10-25,-2.29, 1.60, 15.27, 2.30, 1.69, 7.56, repro,
2006-10-26,-1.30, 0.64, 19.50, 2.24, 1.67, 7.48, repro,
2006-10-27,-1.33, -0.22, 11.88, 2.19, 1.62, 7.20, repro,
2006-10-28,-1.19, 1.09, 12.36, 2.28, 1.62, 7.46, repro,
2006-10-29,0.29, 0.24, 16.96, 2.21, 1.61, 7.33, repro,
2006-10-30,0.49, 0.15, 13.72, 2.15, 1.58, 7.13, repro,
2006-10-31,-0.71, 0.38, 12.62, 2.20, 1.61, 7.28, repro,
2006-11-01,-0.76, 0.82, 9.63, 2.40, 1.73, 7.92, repro,
2006-11-02,-1.86, 0.21, 17.11, 2.20, 1.60, 7.28, repro,
2006-11-03,-2.79, 0.84, 20.88, 2.21, 1.63, 7.31, repro,
2006-11-04,-1.37, 0.59, 14.31, 2.26, 1.66, 7.43, repro,
2006-11-05,-1.12, 1.75, 17.16, 2.24, 1.65, 7.35, repro,
2006-11-06,0.04, 3.16, 9.05, 2.20, 1.60, 7.29, repro,
2006-11-07,-1.41, 2.56, 10.12, 2.38, 1.73, 7.72, repro,
2006-11-08,-2.70, 0.66, 27.08, 2.35, 1.69, 7.60, repro,
2006-11-09,0.34, 0.81, 17.31, 2.38, 1.73, 7.69, repro,
2006-11-10,-0.31, -0.20, 19.55, 2.23, 1.61, 7.17, repro,
2006-11-11,-1.16, 0.10, 16.04, 2.32, 1.65, 7.44, repro,
2006-11-12,-1.21, 1.92, 13.79, 2.37, 1.70, 7.55, repro,
2006-11-13,-4.32, 0.52, 25.50, 2.31, 1.66, 7.40, repro,
2006-11-14,-1.15, -1.53, 20.25, 2.19, 1.58, 7.15, repro,
2006-11-15,0.03, 0.45, 13.30, 2.15, 1.57, 7.08, repro,
2006-11-16,-1.06, 0.56, 16.14, 2.16, 1.58, 7.13, repro,
2006-11-17,-1.38, -0.15, 13.82, 2.18, 1.58, 7.13, repro,
2006-11-18,-0.98, -0.44, 12.65, 2.23, 1.65, 7.43, repro,
2006-11-19,-2.05, 0.88, 11.55, 2.16, 1.58, 7.12, repro,
2006-11-20,-2.97, 0.78, 14.82, 2.15, 1.57, 7.09, repro,
2006-11-21,-0.64, -0.69, 24.90, 2.13, 1.57, 7.00, repro,
2006-11-22,-0.30, -0.67, 19.57, 2.14, 1.57, 7.01, repro,
2006-11-23,-2.55, 0.47, 11.48, 2.20, 1.63, 7.29, repro,
2006-11-24,-0.78, -0.88, 14.35, 2.20, 1.62, 7.27, repro,
2006-11-25,0.98, 0.32, 8.85, 2.15, 1.58, 7.10, repro,
2006-11-26,-0.78, 1.37, 11.76, 2.20, 1.59, 7.15, repro,
2006-11-27,-1.30, 0.09, 13.77, 2.22, 1.64, 7.25, repro,
2006-11-28,-1.79, 0.21, 17.59, 2.16, 1.58, 7.07, repro,
2006-11-29,-1.12, 0.31, 10.39, 2.15, 1.58, 7.05, repro,
2006-11-30,-1.86, -0.07, 7.50, 2.16, 1.58, 7.11, repro,
2006-12-01,-0.95, 0.94, 4.41, 2.15, 1.58, 7.09, repro,
2006-12-02,-1.15, 0.88, 1.29, 2.19, 1.59, 7.19, repro,
2006-12-03,-1.74, 0.49, 3.80, 2.15, 1.58, 7.05, repro,
2006-12-04,-1.30, -0.14, 2.90, 2.19, 1.59, 7.10, repro,
2006-12-05,-1.43, -0.09, 7.75, 2.30, 1.73, 7.66, repro,
2006-12-06,-0.08, 0.47, 8.34, 2.24, 1.69, 7.48, repro,
2006-12-07,-1.48, 1.16, 6.09, 2.20, 1.63, 7.29, repro,
2006-12-08,-1.69, 0.16, 9.60, 2.21, 1.63, 7.30, repro,
2006-12-09,-0.44, 0.41, 15.41, 2.27, 1.72, 7.52, repro,
2006-12-10,-0.04, -0.03, 15.40, 2.23, 1.64, 7.29, repro,
2006-12-11,-1.27, 0.11, 16.31, 2.21, 1.61, 7.21, repro,
2006-12-12,-0.87, -0.14, 17.70, 2.26, 1.65, 7.40, repro,
2006-12-13,-1.48, 0.20, 19.35, 2.26, 1.68, 7.54, repro,
2006-12-14,-0.54, 0.04, 13.32, 2.16, 1.59, 7.12, repro,
2006-12-15,-1.74, 2.71, 14.53, 2.29, 1.71, 7.65, repro,
2006-12-16,0.09, -1.17, 15.74, 2.23, 1.66, 7.32, repro,
2006-12-17,-1.04, 0.09, 11.31, 2.34, 1.79, 8.04, repro,
2006-12-18,-1.03, 0.02, 12.44, 2.53, 1.87, 8.53, repro,
2006-12-19,-1.45, -0.51, 13.13, 2.27, 1.73, 7.67, repro,
2006-12-20,-1.20, -0.05, 7.10, 2.29, 1.74, 7.57, repro,
2006-12-21,-0.30, 0.41, 8.85, 2.16, 1.68, 7.32, repro,
2006-12-22,-0.74, -0.05, 10.33, 2.38, 1.88, 8.28, repro,
2006-12-23,0.69, 0.45, 8.72, 2.26, 1.69, 7.56, repro,
2006-12-24,-0.18, 0.02, 5.11, 2.17, 1.60, 7.10, repro,
2006-12-25,-2.08, 0.23, 3.03, 2.23, 1.70, 7.45, repro,
2006-12-26,-1.18, -0.26, 10.07, 2.23, 1.69, 7.47, repro,
2006-12-27,-1.49, -0.68, 14.95, 2.23, 1.70, 7.51, repro,
2006-12-28,-0.50, 0.54, 9.74, 2.44, 1.89, 8.30, repro,
2006-12-29,-0.03, -1.00, 1.69, 2.31, 1.77, 7.83, repro,
2006-12-30,-1.13, -0.17, 5.89, 2.23, 1.69, 7.44, repro,
2006-12-31,-0.60, -0.12, -0.65, 2.41, 1.86, 8.19, repro,
2007-01-01,-1.27, 0.34, 3.55, 2.27, 1.74, 7.64, repro,
2007-01-02,-6.40, 1.47, 6.62, 2.27, 1.78, 7.79, repro,
2007-01-03,0.35, -0.43, 22.16, 2.21, 1.71, 7.55, repro,
2007-01-04,0.32, -1.23, 12.05, 2.16, 1.63, 7.22, repro,
2007-01-05,-1.23, -0.59, 6.21, 2.18, 1.67, 7.34, repro,
2007-01-06,0.17, -0.81, 8.25, 2.16, 1.66, 7.27, repro,
2007-01-07,-2.21, -0.73, 5.01, 2.19, 1.62, 7.15, repro,
2007-01-08,-1.11, -1.19, 0.11, 2.22, 1.66, 7.32, repro,
2007-01-09,-1.28, -0.67, 1.08, 2.21, 1.62, 7.22, repro,
2007-01-10,-0.99, -0.44, 14.30, 2.22, 1.61, 7.19, repro,
2007-01-11,1.05, -0.72, 9.95, 2.26, 1.61, 7.20, repro,
2007-01-12,-1.11, -0.49, 1.66, 2.16, 1.57, 7.03, repro,
2007-01-13,-0.95, -0.12, 0.08, 2.11, 1.56, 6.93, repro,
2007-01-14,-0.33, -0.24, -2.69, 2.13, 1.56, 6.94, repro,
2007-01-15,-0.44, -1.05, -5.04, 2.14, 1.57, 7.02, repro,
2007-01-16,0.72, -1.06, 0.06, 2.17, 1.57, 7.04, repro,
2007-01-17,-0.89, -1.09, -2.31, 2.12, 1.56, 6.92, repro,
2007-01-18,-0.45, -0.18, -7.78, 2.16, 1.60, 7.11, repro,
2007-01-19,-0.19, -0.62, -2.26, 2.18, 1.57, 7.14, repro,
2007-01-20,0.15, -0.58, 4.10, 2.16, 1.58, 7.10, repro,
2007-01-21,-1.01, -0.42, 4.87, 2.11, 1.56, 6.90, repro,
2007-01-22,-0.16, -1.21, 3.11, 2.13, 1.56, 6.94, repro,
2007-01-23,0.18, -0.67, -1.43, 2.14, 1.57, 6.97, repro,
2007-01-24,-0.84, 0.64, 0.23, 2.12, 1.56, 6.93, repro,
2007-01-25,-1.00, -0.74, 1.85, 2.19, 1.59, 7.05, repro,
2007-01-26,0.11, -0.77, -0.11, 2.10, 1.54, 6.79, repro,
2007-01-27,-1.09, -0.57, 1.15, 2.14, 1.56, 6.94, repro,
2007-01-28,0.26, -0.49, -1.39, 2.13, 1.56, 6.94, repro,
2007-01-29,-0.96, -0.46, -3.36, 2.14, 1.55, 6.92, repro,
2007-01-30,0.53, -0.41, 1.55, 2.10, 1.54, 6.83, repro,
2007-01-31,-0.63, -0.76, 8.58, 2.10, 1.54, 6.77, repro,
2007-02-01,-0.51, -0.80, 8.19, 2.15, 1.59, 7.01, repro,
2007-02-02,-0.65, -0.68, 3.26, 2.18, 1.58, 7.06, repro,
2007-02-03,-0.70, -0.40, 2.01, 2.17, 1.57, 7.05, repro,
2007-02-04,1.36, -2.62, 1.76, 2.11, 1.56, 6.90, repro,
2007-02-05,-0.83, 0.55, 3.43, 2.10, 1.54, 6.78, repro,
2007-02-06,-0.98, -0.35, 4.61, 2.11, 1.55, 6.83, repro,
2007-02-07,-0.83, -0.50, 3.21, 2.13, 1.56, 6.89, repro,
2007-02-08,-0.51, 0.15, 3.63, 2.18, 1.63, 7.17, repro,
2007-02-09,0.90, 0.54, -0.60, 2.15, 1.61, 7.05, repro,
2007-02-10,0.62, -0.25, 8.54, 2.09, 1.54, 6.80, repro,
2007-02-11,0.36, -0.72, 13.84, 2.11, 1.54, 6.82, repro,
2007-02-12,0.77, -0.04, -1.99, 2.11, 1.56, 6.89, repro,
2007-02-13,-0.41, 0.12, -0.46, 2.13, 1.56, 6.94, repro,
2007-02-14,0.41, 0.53, 0.61, 2.13, 1.57, 6.96, repro,
2007-02-15,1.01, -0.15, 2.71, 2.11, 1.55, 6.88, repro,
2007-02-16,-0.31, -1.09, 12.33, 2.12, 1.55, 6.86, repro,
2007-02-17,-0.21, 0.17, 9.81, 2.16, 1.58, 7.01, repro,
2007-02-18,-1.48, -0.42, 17.38, 2.12, 1.55, 6.92, repro,
2007-02-19,-1.01, -0.38, 18.83, 2.14, 1.57, 7.01, repro,
2007-02-20,-0.02, -1.91, 20.53, 2.13, 1.55, 6.88, repro,
2007-02-21,1.29, -0.05, 15.02, 2.12, 1.55, 6.88, repro,
2007-02-22,0.77, -0.57, 8.18, 2.13, 1.55, 6.92, repro,
2007-02-23,0.23, 0.07, 10.77, 2.21, 1.64, 7.24, repro,
2007-02-24,-1.03, -0.72, 8.47, 2.12, 1.55, 6.87, repro,
2007-02-25,-0.63, -0.57, 13.47, 2.14, 1.57, 6.96, repro,
2007-02-26,0.08, -0.56, 12.95, 2.15, 1.56, 6.94, repro,
2007-02-27,0.52, 0.14, 15.67, 2.15, 1.56, 6.95, repro,
2007-02-28,-0.57, 0.28, 16.92, 2.12, 1.55, 6.92, repro,
2007-03-01,-1.01, 0.63, 14.39, 2.19, 1.62, 7.10, repro,
2007-03-02,-0.73, -0.22, 4.24, 2.20, 1.63, 7.19, repro,
2007-03-03,-1.33, 0.72, -3.38, 2.19, 1.60, 7.08, repro,
2007-03-04,-0.31, -0.26, 1.69, 2.18, 1.60, 7.08, repro,
2007-03-05,-0.29, 0.30, 3.10, 2.20, 1.60, 7.15, repro,
2007-03-06,-1.20, -0.48, 4.80, 2.19, 1.60, 7.09, repro,
2007-03-07,-2.17, -0.04, 5.46, 2.17, 1.59, 7.03, repro,
2007-03-08,-0.82, 1.18, 11.47, 2.20, 1.60, 7.12, repro,
2007-03-09,-1.64, -0.60, 12.49, 2.19, 1.59, 7.03, repro,
2007-03-10,-0.36, -1.24, 10.86, 2.31, 1.65, 7.46, repro,
2007-03-11,0.41, -1.68, -2.85, 6.74, 4.43, 22.16, repro,
2007-04-06,-1.47, 2.79, 10.55, 4.37, 3.14, 13.68, repro,
2007-04-07,0.11, -0.47, 10.55, 2.20, 1.57, 6.99, repro,
2007-04-08,0.33, -0.57, 10.28, 2.15, 1.54, 6.89, repro,
2007-04-09,-0.42, -1.23, 15.13, 2.15, 1.54, 6.89, repro,
2007-04-10,-1.46, -0.90, 13.86, 2.25, 1.62, 7.17, repro,
2007-04-11,-0.52, 0.08, 9.53, 2.15, 1.55, 6.90, repro,
2007-04-12,-1.10, -0.88, 12.58, 2.16, 1.54, 6.88, repro,
2007-04-13,-1.26, -0.77, 7.17, 2.16, 1.54, 6.91, repro,
2007-04-14,-1.10, -0.65, 11.38, 2.16, 1.55, 6.88, repro,
2007-04-15,-1.21, -0.72, 5.12, 2.15, 1.54, 6.87, repro,
2007-04-16,-1.71, -0.69, 12.36, 2.15, 1.54, 6.87, repro,
2007-04-17,-0.70, 0.54, 4.34, 2.17, 1.55, 6.91, repro,
2007-04-18,0.12, -0.31, 7.80, 2.16, 1.55, 6.96, repro,
2007-04-19,-0.52, -0.80, 10.01, 2.18, 1.58, 7.08, repro,
2007-04-20,-0.87, -0.64, 8.69, 2.18, 1.58, 7.09, repro,
2007-04-21,-0.31, -0.23, 11.46, 2.19, 1.60, 7.06, repro,
2007-04-22,-0.36, -0.78, 12.04, 2.17, 1.55, 6.93, repro,
2007-04-23,-0.75, -0.29, 8.96, 2.19, 1.57, 7.03, repro,
2007-04-24,0.37, -0.53, 3.23, 2.22, 1.56, 7.07, repro,
2007-04-25,-0.31, -0.51, 11.49, 2.19, 1.57, 7.04, repro,
2007-04-26,-0.89, -0.08, 8.17, 2.20, 1.58, 7.10, repro,
2007-04-27,-0.53, -0.01, 11.74, 2.15, 1.55, 6.94, repro,
2007-04-28,-1.98, -0.14, 8.99, 2.17, 1.55, 7.01, repro,
2007-04-29,-1.63, -1.64, 7.77, 2.18, 1.55, 7.02, repro,
2007-04-30,-0.91, -1.21, 7.28, 2.24, 1.59, 7.20, repro,
2007-05-01,-1.56, -0.05, 6.13, 2.16, 1.53, 6.93, repro,
2007-05-02,-1.48, 0.09, 10.89, 2.22, 1.55, 7.10, repro,
2007-05-03,-0.49, -0.46, 9.24, 2.22, 1.56, 7.10, repro,
2007-05-04,-1.27, -0.77, 6.19, 2.18, 1.54, 7.00, repro,
2007-05-05,-0.83, -1.52, 8.63, 2.21, 1.58, 7.22, repro,
2007-05-06,-0.21, -0.21, 1.80, 2.19, 1.53, 6.99, repro,
2007-05-07,-0.83, 0.57, 9.70, 2.18, 1.53, 6.95, repro,
2007-05-08,0.36, -0.86, 8.90, 2.17, 1.53, 6.94, repro,
2007-05-09,-0.03, -0.37, 7.95, 2.19, 1.54, 6.97, repro,
2007-05-10,0.09, -0.54, 1.68, 2.30, 1.61, 7.48, repro,
2007-05-11,-1.00, -0.92, 2.14, 2.30, 1.62, 7.48, repro,
2007-05-12,-0.60, -0.49, 11.61, 2.18, 1.54, 6.98, repro,
2007-05-13,0.91, -0.84, 7.85, 2.22, 1.57, 7.04, repro,
2007-05-14,-0.82, 0.22, 2.35, 2.21, 1.57, 7.08, repro,
2007-05-15,-1.04, -0.49, 8.22, 2.25, 1.60, 7.24, repro,
2007-05-16,-1.53, -0.87, 7.64, 2.25, 1.60, 7.19, repro,